Aérodrome :
LOGIN :

S'inscrire | Disclaimer

   EN    FR    IT 

 










Légende :    VFR   VFR Marginal   IFR   IFR Intensif   IFR Très Intensif
Visi : 
Plafond : 
>= 8 km
>= 3000ft
5 à 8 km
1000 à 3000 ft
1500m à 5 km
500 à 1000 ft
800 à 1500m
200 à 500 ft
< 800m
< 200 ft
Symboles :   Orages  Brouillard  Fortes neiges  Fortes précipitations  Vent > 20 kt
SIGMETs :   Divers  Orages  Givrage  Turbulence  Onde Orograph.  Cendres Volcan.







- Altitude de l'aérodrome : 53 ft
- Code IATA : LBC


EDHL - Lübeck

DERNIER METAR :
  • 290650Z 31004KT 9000 SCT012 19/17 Q0994

METARs EXPIRÉS :
  • 290620Z 32004KT 280V360 7000 FEW010 19/18 Q0994
  • 290550Z 31003KT 240V010 7000 FEW020 18/18 Q0995
  • 290520Z 31004KT 7000 BKN017 17/17 Q0995

TAF TAF EDHL
Valide du 29 à 06h jusqu'au 29 à 15h UTC


290518Z 2906/2915 32005KT 9999 BKN020
PROB30
TEMPO 2906/2908 VRB03KT 2000 BR BKN003
PROB30
TEMPO 2913/2915 SCT020CB
Pas de NOTAMs connus pour ce terrain.



MET'MAP, la Météo Aéronautique d'un coup d'oeil ! - Copyright ORBIFLY Décembre 2007 - Disclaimer

ORBIFLY MET'MAP TEAM :

Programmation & Développement : Alexandra Zaïnal
Conception & Développement : Baudouin d'Aumeries
Co-Programmation & Développement : Marc-Olivier Méhu
Soutien technique & logistique : Manuel Goepfert

Contact : metmap@orbifly.com




SOURCES & CREDITS :

   NOAA